Regional Weather Roundup
Issued by NWS

Home | Current Version | Previous Version | Text Only | Print | Product List | Glossary On
Versions: 1 2 3 4 5 6 7 8 9 10 11 12 13 14 15 16 17 18 19 20 21 22 23 24 25 26 27 28 29 30 31 32 33 34 35 36 37 38 39 40 41 42 43 44 45 46 47 48 49 50
000
ASUS45 KABQ 300810
RWRNM
NEW MEXICO REGIONAL WEATHER ROUNDUP
NATIONAL WEATHER SERVICE ALBUQUERQUE NM
200 AM MDT SAT APR 30 2016

NOTE: "FAIR" MEANS FEW OR NO CLOUDS BELOW 12,000 FEET AGL WITH NO
       SIGNIFICANT WEATHER OR OBSTRUCTIONS TO VISION.

      THIS PRODUCT IS RELEASED AS TWO VERSIONS.  ONE VERSION NEAR
      THE TOP OF THE HOUR CONTAINING PRELIMINARY DATA FROM ALBUQUERQUE
      AND OTHER STATIONS.  A FINAL VERSION WITH ADDITIONAL DATA IS
      ISSUED ABOUT 10 MINUTES AFTER THE HOUR.

NMZ501-503-504-510>518-300900-
NORTHWEST PLATEAU/NORTHCENTRAL MOUNTAINS

CITY           SKY/WX    TMP DP  RH WIND       PRES   REMARKS
FARMINGTON     FAIR      38  31  76 W5        29.85R WCI  34
LOS ALAMOS     FAIR      37  32  82 CALM      29.89S
SANTA FE       FAIR      39  35  86 W10       29.87S WCI  32
TAOS           MOCLDY    36  28  75 N6        29.87S WCI  31
ANGEL FIRE     CLOUDY    34  28  79 SW13      29.85F WCI  25

$$
NMZ402-403-502-505>509-300900-
WESTCENTRAL MOUNTAINS/SOUTHWEST MOUNTAINS

CITY           SKY/WX    TMP DP  RH WIND       PRES   REMARKS
GALLUP         MOCLDY    38  34  85 S5        29.91S WCI  34
GRANTS         MOCLDY    37  34  89 CALM      29.94S
SILVER CITY      N/A     45  27  49 N12       29.94S

$$
NMZ407-409-411-412-300900-
SOUTHERN DESERTS

CITY           SKY/WX    TMP DP  RH WIND       PRES   REMARKS
LORDSBURG      FAIR      46  27  46 NW8       29.90S
DEMING         FAIR      48  28  46 SW6       29.90S
LAS CRUCES     FAIR      47  26  43 W7        29.90S
HOLLOMAN AFB   FAIR      51  25  35 NW3       29.84F
ALAMOGORDO     FAIR      50  25  37 CALM      29.86S
T OR C         FAIR      49  29  46 E5        29.88S

$$
NMZ519>523-300900-
CENTRAL VALLEYS/CENTRAL HIGHLANDS

CITY           SKY/WX    TMP DP  RH WIND       PRES   REMARKS
ALBUQUERQUE    CLOUDY    47  35  63 W10G25    29.90R
DOUBLE EAGLE   CLOUDY    41  36  80 W12       29.90S
MORIARTY ARPT  FAIR      41  33  72 W12G20    29.90S
CLINES CORNERS FAIR      36  32  85 W23       29.85F WCI  24
BELEN          CLOUDY    44  38  79 W10       29.91S
SOCORRO        CLOUDY    49  36  61 NW5       29.91R

$$
NMZ524>526-539-540-300900-
SOUTHCENTRAL MOUNTAINS

CITY           SKY/WX    TMP DP  RH WIND       PRES   REMARKS
RUIDOSO          N/A     39  32  75 CALM      29.93F

$$
NMZ527>531-300900-
NORTHEAST HIGHLANDS/NORTHEAST PLAINS

CITY           SKY/WX    TMP DP  RH WIND       PRES   REMARKS
LAS VEGAS      FAIR      31  28  89 N5        29.83S WCI  26
RATON          FAIR      32  26  78 CALM      29.81F
CLAYTON        CLOUDY    38  32  79 N18       29.81F WCI  28

$$
NMZ532>537-300900-
EASTCENTRAL PLAINS

CITY           SKY/WX    TMP DP  RH WIND       PRES   REMARKS
TUCUMCARI      FAIR      38  35  89 E5        29.83F WCI  34
CANNON AFB     NOT AVBL
CLOVIS AIRPORT CLOUDY    43  37  81 NE9       29.84F

$$
NMZ028-029-538-300900-
SOUTHEAST PLAINS

CITY           SKY/WX    TMP DP  RH WIND       PRES   REMARKS
ROSWELL        FAIR      55  32  41 NW6       29.82S
ARTESIA        FAIR      54  28  37 N9        29.83S
CARLSBAD       FAIR      55  25  31 W7        29.78F
HOBBS          FAIR      52  28  40 NW12      29.81S


$$




USA.gov is the U.S. government's official web portal to all federal, state and local government web resources and services.